Other Public Products
Issued by NWS Grand Forks, ND

Home | Current Version | Previous Version | Graphics & Text | Print | Product List | Glossary On
Versions: 1 2 3 4 5 6 7 8 9 10 11 12 13 14 15 16 17 18 19 20 21 22 23 24 25 26 27 28 29 30 31 32 33 34 35 36 37 38 39 40 41 42 43 44 45 46 47 48 49 50
000
FPUS83 KFGF 231231
OPUFGF
PRAIRIE TO PINES WEATHER ROUNDUP
NATIONAL WEATHER SERVICE EASTERN NORTH DAKOTA/GRAND FORKS ND
700 AM CDT SUN APR 23 2017

 **SATELLITE DATA USED TO AUGMENT SKY COVER AT AUTOMATED STATIONS**
 *****  WEATHER ACROSS EASTERN NORTH DAKOTA  *****

CITY           SKY/WX    TMP DP  RH WIND       PRES   REMARKS
GRAND FORKS    CLOUDY    33  24  69 NE12      30.22F WCI  24
6HR MIN TEMP:  32; 6HR MAX TEMP:  35;

GRAND FORKS AF CLOUDY    30  21  67 E10       30.23R WCI  21
GRAND CITY NWS NOT AVBL
BUXTON           N/A     31  29  93 NE12        N/A  WCI  22
DEVILS LAKE    CLOUDY    28  20  71 E15G24    30.18F WCI  16
6HR MIN TEMP:  28; 6HR MAX TEMP:  32; 6HR PCP: TRACE;

FARGO          LGT SNOW  33  33 100 NE16      30.15F FOG     WCI  23
6HR MIN TEMP:  33; 6HR MAX TEMP:  37; 6HR PCP:  0.02;

WAHPETON ARPT  CLOUDY    39  34  81 E12       30.11F
$$

 *****  WEATHER ACROSS CENTRAL AND WESTERN NORTH DAKOTA  *****

CITY           SKY/WX    TMP DP  RH WIND       PRES   REMARKS
JAMESTOWN      CLOUDY    29  26  89 NE17      30.12F WCI  17
6HR MIN TEMP:  29; 6HR MAX TEMP:  34; 6HR PCP: TRACE;

BISMARCK       CLOUDY    33  24  69 E23G30    30.07F WCI  21
6HR MIN TEMP:  33; 6HR MAX TEMP:  38;

MINOT          FLURRIES  30  16  56 E18       30.13F WCI  18
6HR MIN TEMP:  30; 6HR MAX TEMP:  33; 6HR PCP:  0.01;

MINOT AFB      CLOUDY    29  18  63 E15       30.13F WCI  18
6HR MIN TEMP:  29; 6HR MAX TEMP:  32; 6HR PCP: TRACE;

GARRISON         N/A     27  25  92 E23G30    30.10R WCI  12
6HR MIN TEMP:  27; 6HR MAX TEMP:  33; 6HR PCP:  0.11;

WILLISTON      CLOUDY    33  27  78 E12G23    30.05F WCI  24
6HR MIN TEMP:  33; 6HR MAX TEMP:  38;

DICKINSON      CLOUDY    31  29  92 E23       29.96S WCI  18
6HR MIN TEMP:  31; 6HR MAX TEMP:  36;

HETTINGER      CLOUDY    33  31  92 E16G22    29.94S FOG     WCI  23
6HR MIN TEMP:  33; 6HR MAX TEMP:  43;

$$

 *****  OTHER OBSERVATIONS NORTHEAST NORTH DAKOTA  *****

CITY           SKY/WX    TMP DP  RH WIND       PRES   REMARKS
WALHALLA       NOT AVBL
LANGDON        CLOUDY    27  21  80 E15       30.21R WCI  15
CAVALIER       FAIR      28  19  69 NE6       30.26F WCI  22
GRAFTON        FAIR      30  21  69 NE12      30.27S WCI  21
CANDO          NOT AVBL
FORT TOTTEN      N/A     28  18  66 E8        29.95S WCI  20
ROLLA          CLOUDY    27  16  63 E12       30.18F WCI  16
RUGBY          NOT AVBL
 ***** THE ABOVE OBSERVATIONS ARE NON NWS ARE NOT QUALITY
        CONTROLLED AND MAY MIS-REPORT RAIN FOR SNOW...
$$

 *****  OTHER OBSERVATIONS SOUTHEAST NORTH DAKOTA *****

CITY           SKY/WX    TMP DP  RH WIND       PRES   REMARKS
COOPERSTOWN    LGT SNOW  27  25  93 NE18      30.16R VSB 3/4 WCI  13
VALLEY CITY    CLOUDY    27  27 100 NE18G24   30.14F WCI  13
OAKES          NOT AVBL
GWINNER        CLOUDY    34  32  93 MISG      30.10R
SHEYENNE NWR     N/A     32  30  93 NE13      29.95S WCI  22
BUFFALO          N/A     29  27  95 SE16        N/A  WCI  17
WYNDMERE         N/A     37  37 100 NE14        N/A
 ***** THE ABOVE OBSERVATIONS ARE NON NWS ARE NOT QUALITY
       CONTROLLED AND MAY MIS-REPORT RAIN FOR SNOW...
$$

  *****  WEATHER ACROSS NORTHERN MINNESOTA  *****

CITY           SKY/WX    TMP DP  RH WIND       PRES   REMARKS
FLAG ISLAND    FAIR      28  10  47 E8        30.27R WCI  20
WARROAD        FAIR      30  16  55 NE12G21   30.26S WCI  21
ROSEAU         FAIR      28  21  74 NE9       30.25F WCI  20
HALLOCK        FAIR      28  19  69 E10       30.26S WCI  19
THF RVR FALLS  CLOUDY    30  24  78 NE15      30.22S WCI  19
6HR MIN TEMP:  30; 6HR MAX TEMP:  32;

HALSTAD          N/A     32  28  88 NE12        N/A  WCI  23
FOSSTON        CLOUDY    30  28  93 E8        30.19F WCI  23
BAUDETTE       FAIR      27  16  63 NE8       30.25S WCI  19
6HR MIN TEMP:  27; 6HR MAX TEMP:  34;

WASKISH        MOCLDY    28  25  86 NE10      30.24R WCI  19
CROOKSTON      FAIR      32  27  80 E13       30.23R WCI  22
$$
  *****  WEATHER ACROSS CENTRAL AND WEST MINNESOTA  *****

CITY           SKY/WX    TMP DP  RH WIND       PRES   REMARKS
BEMIDJI        CLOUDY    31  24  74 NE12      30.20R WCI  22
PARK RAPIDS    LGT SNOW  33  28  81 NE8       30.17R
6HR MIN TEMP:  33; 6HR MAX TEMP:  41; 6HR PCP:  0.01;

WADENA         CLOUDY    36  34  93 E9        30.14R
DETROIT LAKES  CLOUDY    34  32  93 NE13      30.14F WCI  25
MOORHEAD       LGT RAIN  34  30  86 NE13      30.16S WCI  25
FERGUS FALLS   MOCLDY    39  34  81 E15       30.11S
ELBOW LAKE     CLOUDY    41  37  85 NE16G23   30.08F
6HR MIN TEMP:  40; 6HR MAX TEMP:  47;

MORRIS MN      FAIR      43  37  81 E16       30.07F
STAPLES        CLOUDY    36  32  87 NE8       30.15R
WHEATON        FAIR      41  36  81 NE8       30.10F
$$
  *****  WEATHER ELSEWHERE ACROSS MINNESOTA  *****

CITY           SKY/WX    TMP DP  RH WIND       PRES   REMARKS
DULUTH         LGT SNOW  34  32  92 NE12      30.17R VSB 3/4
6HR MIN TEMP:  34; 6HR MAX TEMP:  45; 6HR PCP:  0.07;

INTRNTL FALLS  FAIR      28  16  60 N8        30.24S WCI  20
6HR MIN TEMP:  28; 6HR MAX TEMP:  34;

ELY            FAIR      28  19  69 NE8       30.21R WCI  20
CLOQUET        FLURRIES  34  30  86 N5        30.17S
BRAINERD       CLOUDY    37  34  89 N13       30.16R
6HR MIN TEMP:  37; 6HR MAX TEMP:  48; 6HR PCP: TRACE;

HIBBING        CLOUDY    29  25  85 NE12      30.20R WCI  19
6HR MIN TEMP:  29; 6HR MAX TEMP:  38; 6HR PCP:  0.11;

ALEXANDRIA     MOCLDY    41  36  82 NE14      30.11S
6HR MIN TEMP:  41; 6HR MAX TEMP:  50;

SAINT CLOUD    CLOUDY    44  37  76 NE9       30.11R
6HR MIN TEMP:  44; 6HR MAX TEMP:  51;

MINNEAPOLIS    FAIR      49  36  61 W3        30.09R
6HR MIN TEMP:  49; 6HR MAX TEMP:  55;

$$

  *****  WEATHER ACROSS SOUTH DAKOTA  *****

CITY           SKY/WX    TMP DP  RH WIND       PRES   REMARKS
SIOUX FALLS    FAIR      47  35  63 SW7       30.08S
6HR MIN TEMP:  46; 6HR MAX TEMP:  52;

BROOKINGS      FAIR      44  34  67 S8        30.06F
WATERTOWN      FAIR      33  31  92 NE5       30.05S
6HR MIN TEMP:  33; 6HR MAX TEMP:  49;

HURON          FAIR      38  35  89 SE5       30.03R
6HR MIN TEMP:  35; 6HR MAX TEMP:  49;

SISSETON         N/A     38  37  97 NE10      30.08F
ABERDEEN       CLOUDY    35  32  88 NE17      30.06F WCI  25
6HR MIN TEMP:  34; 6HR MAX TEMP:  40;

MITCHELL       FAIR      48  35  60 S12       30.04F
PIERRE         FAIR      46  32  58 S7        29.94F
6HR MIN TEMP:  44; 6HR MAX TEMP:  54;

MOBRIDGE       MOCLDY    36  31  82 E21G29    29.97R
RAPID CITY     FAIR      43  33  68 SE9       29.86F
6HR MIN TEMP:  40; 6HR MAX TEMP:  46;

$$

  *****  SOME WEATHER IN NEARBY STATES *****

CITY           SKY/WX    TMP DP  RH WIND       PRES   REMARKS
GLASGOW MT     CLOUDY    36  31  82 E26G33    29.90S
6HR MIN TEMP:  36; 6HR MAX TEMP:  41; 6HR PCP: TRACE;

GREAT FALLS MT CLOUDY    39  38  96 NW6       29.79F
6HR MIN TEMP:  38; 6HR MAX TEMP:  46;

CHEYENNE WY    FAIR      34  28  79 W3        30.00F
6HR MIN TEMP:  32; 6HR MAX TEMP:  40;

SCOTTSBLUFF NE FAIR      41  32  70 SE9       29.98F
6HR MIN TEMP:  38; 6HR MAX TEMP:  49;

OMAHA NE       FAIR      41  35  79 SE3       30.17R
6HR MIN TEMP:  40; 6HR MAX TEMP:  47;

DES MOINES IA  FAIR      44  32  62 CALM      30.16R
6HR MIN TEMP:  44; 6HR MAX TEMP:  50;

DAVENPORT IA     N/A     37  33  85 CALM      30.16R
6HR MIN TEMP:  34; 6HR MAX TEMP:  43;

CHICAGO IL     FAIR      41  31  67 W3        30.14R
6HR MIN TEMP:  37; 6HR MAX TEMP:  43;

EAU CLAIRE WI  FAIR      43  36  76 CALM      30.07R
6HR MIN TEMP:  43; 6HR MAX TEMP:  47;

LA CROSSE WI   FAIR      48  40  73 S8        30.10R
6HR MIN TEMP:  46; 6HR MAX TEMP:  50;

$$

  *****  SOME NATIONAL WEATHER *****

CITY           SKY/WX    TMP DP  RH WIND       PRES   REMARKS
LA GUARDIA NY  FAIR      51  35  54 NE6       30.12R



USA.gov is the U.S. government's official web portal to all federal, state and local government web resources and services.